[[{"header":{"parameterUnit":"m.s-1","parameterCategory":2,"la1":30.2991,"la2":30.254,"lo1":-89.0895,"lo2":-89.0444,"dy":0.0017,"dx":0.0017,"nx":28,"ny":28,"refTime":"2024-05-23T09:00:00:Z","depth":"0","parameterNumber":2,"parameterNumberName":"U-component_of_CURRENTS"},"data":[0,0,0,0,0,0,0,0,0,0,0,0,0,0,0,0,0,0,0,0,0,0,0,0,0,0,0,0,0,0,0,0,0,0,0,0,0,0,0,0,0,0,0,0,0,0,0,0,0,0,0,0,0,0,0,0,0,0,-0.2684,-0.2684,0,-0.27,-0.27,-0.27,-0.2669,-0.2669,-0.2668,-0.2667,-0.2622,-0.2621,-0.2621,0,0,0,0,0,0,0,0,0,0,0,0,0,-0.2622,-0.2624,-0.2684,-0.2684,-0.2685,-0.27,-0.27,-0.27,-0.2669,-0.2669,-0.2668,-0.2667,-0.2622,-0.2621,-0.2621,0,0,0,0,0,0,0,0,0,0,0,0,0,-0.2642,-0.2624,-0.2684,-0.2673,-0.2673,-0.27,-0.27,-0.27,-0.267,-0.2669,-0.2667,-0.2666,-0.2622,-0.2621,-0.2621,-0.2639,0,0,-0.2618,-0.2618,0,0,0,0,0,0,0,0,-0.2641,-0.2644,-0.2674,-0.2674,-0.2674,-0.2684,-0.2661,-0.2677,-0.267,-0.2668,-0.2667,-0.2666,-0.2639,-0.2637,-0.264,-0.2637,-0.2635,-0.2618,-0.2618,-0.2617,-0.2617,0,0,0,0,0,0,0,-0.264,-0.2644,-0.2688,-0.2675,-0.2675,-0.2666,-0.2668,-0.2664,-0.2657,-0.2668,-0.2667,-0.2673,-0.2638,-0.2641,-0.2638,-0.2635,-0.2618,-0.2618,-0.2617,-0.2617,-0.2649,-0.265,0,0,0,0,0,0,-0.2645,-0.2643,-0.2687,-0.2688,-0.2657,-0.2668,-0.267,-0.2679,-0.2658,-0.2655,-0.2674,-0.2671,-0.2642,-0.2639,-0.2637,-0.2662,-0.2617,-0.2617,-0.2616,-0.2648,-0.2649,-0.2651,0,0,0,0,0,0,-0.2644,-0.2649,-0.2687,-0.2667,-0.2672,-0.2671,-0.2682,-0.268,-0.2678,-0.2664,-0.2658,-0.2672,-0.2641,-0.2638,-0.2635,-0.266,-0.2616,-0.2616,-0.2646,-0.2648,-0.265,-0.271,0,0,0,0,0,0,-0.2642,-0.2648,-0.2652,-0.2668,-0.2673,-0.2705,-0.2683,-0.2682,-0.2685,-0.2681,-0.2661,-0.2656,-0.264,-0.2637,-0.2635,-0.2658,-0.2615,-0.2644,-0.2647,-0.2649,-0.2706,-0.2714,-0.272,0,0,0,0,0,-0.264,-0.265,-0.2652,-0.2657,-0.2679,-0.2706,-0.2708,-0.2701,-0.2686,-0.2692,-0.2677,-0.2656,-0.2651,-0.2637,-0.2634,-0.2658,-0.2643,-0.2646,-0.2649,-0.2703,-0.2712,-0.272,0,0,0,0,0,0,-0.2618,-0.2649,-0.2651,-0.2668,-0.2687,-0.2702,-0.2703,-0.2704,-0.2699,-0.2688,-0.2668,-0.2663,-0.2676,-0.2658,-0.2644,-0.2676,-0.2646,-0.2648,-0.2688,-0.2696,-0.2703,-0.2701,-0.2615,0,0,0,0,0,-0.2619,-0.2633,-0.2664,-0.2673,-0.2685,-0.2694,-0.2701,-0.2704,-0.2706,-0.2701,-0.2691,-0.2682,-0.2689,-0.2683,-0.2684,-0.2695,-0.266,-0.2711,-0.2718,-0.2723,-0.2721,-0.2703,-0.2708,-0.266,-0.266,-0.266,0,0,-0.2612,-0.2629,-0.2636,-0.2669,-0.2677,-0.2711,-0.2694,-0.2709,-0.2734,-0.2698,-0.2713,-0.2706,-0.2699,-0.2717,-0.2721,-0.2701,-0.2715,-0.2727,-0.2732,-0.2727,-0.2707,-0.2711,-0.2715,-0.2662,-0.2662,-0.2661,0,0,-0.2612,-0.2622,-0.264,-0.2667,-0.2694,-0.271,-0.2718,-0.274,-0.2743,-0.2764,-0.2751,-0.2754,-0.2757,-0.2761,-0.2763,-0.2807,-0.2757,-0.2811,-0.2837,-0.282,-0.2824,-0.2826,-0.2768,-0.2765,-0.2809,-0.2809,-0.2809,0,-0.2602,-0.2633,-0.2647,-0.2681,-0.2704,-0.2715,-0.2749,-0.2767,-0.2784,-0.2788,-0.2773,-0.2786,-0.2781,-0.2807,-0.2827,-0.2823,-0.2787,-0.2806,-0.2828,-0.283,-0.2831,-0.2771,-0.2767,-0.2812,-0.2812,-0.2811,-0.2811,0,-0.2627,-0.2656,-0.2668,-0.2718,-0.2745,-0.2772,-0.2812,-0.2828,-0.283,-0.2843,-0.2859,-0.2853,-0.2854,-0.2866,-0.2861,-0.2881,-0.2842,-0.2842,-0.2804,-0.2839,-0.2774,-0.2768,-0.2817,-0.2815,-0.2814,-0.2814,0,0,-0.2587,-0.2672,-0.2673,-0.2704,-0.2767,-0.2789,-0.2838,-0.2878,-0.2894,-0.2907,-0.292,-0.2944,-0.2924,-0.2926,-0.292,-0.2912,-0.2895,-0.2884,-0.2882,-0.2819,-0.2821,-0.2717,-0.27,-0.2896,-0.2896,-0.2896,-0.2763,0,-0.2598,-0.2662,-0.2707,-0.2765,-0.2801,-0.2842,-0.2887,-0.2922,-0.2937,-0.2954,-0.2952,-0.2962,-0.2954,-0.2949,-0.2945,-0.2913,-0.2886,-0.2928,-0.2801,-0.2797,-0.2695,-0.2693,-0.2587,-0.2454,-0.2757,-0.2756,-0.2756,0,-0.2602,-0.2646,-0.2708,-0.2789,-0.2807,-0.2846,-0.2897,-0.2941,-0.2977,-0.2986,-0.2992,-0.2987,-0.2985,-0.2972,-0.2913,-0.2937,-0.2883,-0.285,-0.2844,-0.2721,-0.2683,-0.2472,-0.2432,-0.2422,-0.2746,-0.2747,-0.2748,0,-0.2547,-0.264,-0.2684,-0.2716,-0.2814,-0.2838,-0.2881,-0.2933,-0.2955,-0.2995,-0.2986,-0.2999,-0.2967,-0.2938,-0.2865,-0.2889,-0.2777,-0.2797,-0.2643,-0.2633,-0.2505,-0.2484,-0.2433,-0.2745,-0.2745,-0.2746,-0.2746,0,-0.2536,-0.2564,-0.266,-0.2685,-0.2722,-0.2806,-0.2837,-0.2883,-0.2934,-0.2943,-0.2982,-0.2961,-0.2956,-0.2894,-0.2855,-0.2708,-0.2756,-0.2632,-0.2595,-0.252,-0.2503,-0.2456,-0.2493,-0.2741,-0.2742,-0.2743,-0.2744,0,-0.2455,-0.2532,-0.2574,-0.2671,-0.2696,-0.2712,-0.2792,-0.2811,-0.2872,-0.2879,-0.2885,-0.2903,-0.282,-0.278,-0.2705,-0.2647,-0.2505,-0.2495,-0.2384,-0.2336,-0.2193,-0.2237,-0.2131,-0.2072,-0.2305,-0.2302,-0.2299,0,-0.2416,-0.2433,-0.252,-0.2537,-0.2574,-0.2621,-0.2649,-0.2751,-0.2774,-0.2826,-0.2809,-0.2757,-0.2672,-0.2509,-0.2429,-0.2302,-0.234,-0.2139,-0.2178,-0.2152,-0.2176,-0.2222,-0.2185,-0.202,-0.2015,-0.2011,-0.2008,0,-0.2316,-0.2344,-0.2375,-0.2413,-0.2445,-0.2481,-0.2533,-0.2547,-0.2656,-0.2648,-0.2614,-0.2554,-0.2418,-0.225,-0.2108,-0.2033,-0.2097,-0.2051,-0.2065,-0.1974,-0.198,-0.1915,-0.2126,-0.1973,-0.1976,-0.1979,-0.1981,-0.1982,-0.2205,-0.2196,-0.2239,-0.2257,-0.2295,-0.2309,-0.2264,-0.2332,-0.2325,-0.225,-0.237,-0.2196,-0.2146,-0.1922,-0.1853,-0.1718,-0.1802,-0.1675,-0.1732,-0.1782,-0.1726,-0.1835,-0.1627,-0.1628,-0.1629,-0.1631,-0.1632,0,-0.2057,-0.2068,-0.2081,-0.2098,-0.2068,-0.2141,-0.2148,-0.2044,-0.1954,-0.1907,-0.184,-0.1784,-0.1668,-0.163,-0.1548,-0.1451,-0.1441,-0.1416,-0.1484,-0.1463,-0.1571,-0.1561,-0.128,-0.128,-0.128,-0.128,-0.128,-0.128,-0.198,-0.1937,-0.1949,-0.1854,-0.1855,-0.173,-0.1677,-0.1534,-0.1424,-0.1208,-0.1126,-0.1087,-0.1267,-0.1516,-0.1454,-0.1369,-0.1364,-0.1291,-0.1343,-0.1464,-0.1495,-0.1524,-0.1523,-0.1238,-0.1238,-0.1174,-0.1173,-0.1173]},{"header":{"parameterUnit":"m.s-1","parameterCategory":2,"la1":30.2991,"la2":30.254,"lo1":-89.0895,"lo2":-89.0444,"dy":0.0017,"dx":0.0017,"nx":28,"ny":28,"refTime":"2024-05-23T09:00:00:Z","depth":"0","parameterNumber":3,"parameterNumberName":"V-component_of_CURRENTS"},"data":[0,0,0,0,0,0,0,0,0,0,0,0,0,0,0,0,0,0,0,0,0,0,0,0,0,0,0,0,0,0,0,0,0,0,0,0,0,0,0,0,0,0,0,0,0,0,0,0,0,0,0,0,0,0,0,0,0,0,-0.0214,-0.0213,0,-0.0127,-0.0126,-0.0125,-0.0052,-0.0051,-0.005,-0.005,0.0086,0.0089,0.0092,0,0,0,0,0,0,0,0,0,0,0,0,0,-0.026,-0.026,-0.0214,-0.0213,-0.0212,-0.0128,-0.0126,-0.0125,-0.0052,-0.0051,-0.005,-0.005,0.0085,0.0088,0.0092,0,0,0,0,0,0,0,0,0,0,0,0,0,-0.0212,-0.0259,-0.0214,-0.0167,-0.0162,-0.0128,-0.0126,-0.0124,-0.0052,-0.0051,-0.005,-0.0049,0.0084,0.0088,0.0093,0.0102,0,0,0.0106,0.0108,0,0,0,0,0,0,0,0,-0.0215,-0.021,-0.0175,-0.017,-0.0165,-0.0101,-0.0093,-0.0047,-0.0052,-0.0092,-0.005,-0.0049,0.0026,0.0035,0.0052,0.0108,0.0114,0.0107,0.011,0.0112,0.0113,0,0,0,0,0,0,0,-0.0218,-0.0213,-0.0178,-0.0174,-0.0168,-0.0131,-0.0123,-0.0083,-0.0037,-0.0088,-0.0083,-0.0077,0.003,0.0047,0.0055,0.0116,0.0107,0.0111,0.0114,0.0115,0.0211,0.0211,0,0,0,0,0,0,-0.0237,-0.0216,-0.018,-0.0175,-0.019,-0.0131,-0.0123,-0.0121,-0.0038,-0.0026,-0.0078,-0.0074,0.0039,0.005,0.006,0.009,0.0112,0.0116,0.0118,0.0211,0.0211,0.0211,0,0,0,0,0,0,-0.0238,-0.0235,-0.0184,-0.0195,-0.0186,-0.0132,-0.013,-0.012,-0.0101,-0.0031,-0.0017,-0.0071,0.004,0.0054,0.0095,0.0095,0.0118,0.0122,0.0211,0.0211,0.0211,0.0141,0,0,0,0,0,0,-0.024,-0.0236,-0.0244,-0.0197,-0.0186,-0.0174,-0.0131,-0.0119,-0.01,-0.0094,-0.0021,-0.0007,0.0042,0.0088,0.0099,0.0102,0.0126,0.0211,0.0211,0.0211,0.0143,0.0138,0.0134,0,0,0,0,0,-0.0242,-0.0261,-0.0245,-0.024,-0.0198,-0.0175,-0.0166,-0.0122,-0.0101,-0.0101,-0.0047,-0.0009,0.0094,0.0091,0.0105,0.0109,0.0212,0.0211,0.0211,0.0145,0.0139,0.0134,0,0,0,0,0,0,-0.0288,-0.0255,-0.0235,-0.0244,-0.0215,-0.0163,-0.0162,-0.0131,-0.009,-0.0083,-0.0013,0.0004,0.004,0.008,0.0075,0.0135,0.0159,0.0162,0.0105,0.01,0.0095,0.0085,0.0129,0,0,0,0,0,-0.0303,-0.0307,-0.0266,-0.0274,-0.0264,-0.0215,-0.02,-0.0171,-0.0128,-0.0109,-0.0057,-0.0001,0.0048,0.0077,0.0121,0.0152,0.0206,0.0164,0.0159,0.0155,0.0157,0.024,0.0244,0.0209,0.0209,0.0209,0,0,-0.0324,-0.0307,-0.0308,-0.0284,-0.0258,-0.0251,-0.0203,-0.019,-0.0176,-0.0101,-0.0071,-0.0021,0.005,0.0087,0.0107,0.0123,0.0191,0.0155,0.015,0.0155,0.024,0.0244,0.0247,0.0209,0.0209,0.0209,0,0,-0.0372,-0.0352,-0.0372,-0.0351,-0.0322,-0.0287,-0.0288,-0.024,-0.0211,-0.018,-0.0119,-0.0066,-0.0003,0.0058,0.0095,0.009,0.0157,0.0099,0.0075,0.0156,0.016,0.0164,0.0225,0.0235,0.0102,0.0102,0.0102,0,-0.04,-0.0413,-0.0374,-0.0383,-0.037,-0.0309,-0.0318,-0.0282,-0.0226,-0.0196,-0.0183,-0.0066,-0.0012,0.0059,0.0056,0.0081,0.0129,0.009,0.015,0.0155,0.0161,0.0223,0.0235,0.0099,0.0099,0.0099,0.01,0,-0.0455,-0.0463,-0.0474,-0.046,-0.0439,-0.044,-0.0383,-0.0357,-0.0315,-0.0266,-0.0199,-0.0121,-0.0045,-0.0023,0.0015,0.008,0.0102,0.0129,0.0163,0.016,0.0225,0.0239,0.0094,0.0095,0.0096,0.0097,0,0,-0.0522,-0.0516,-0.052,-0.0521,-0.0478,-0.0467,-0.044,-0.0389,-0.0359,-0.0297,-0.0247,-0.0163,-0.011,-0.0064,-0.0002,0.0067,0.014,0.0105,0.0111,0.0162,0.0307,0.0348,0.0368,0.0178,0.018,0.0182,0.0333,0,-0.0577,-0.0619,-0.0589,-0.0607,-0.0617,-0.0546,-0.0521,-0.0461,-0.0397,-0.0334,-0.0232,-0.0169,-0.0127,-0.009,-0.0014,0.0107,0.0175,0.0096,0.0306,0.0312,0.0347,0.0385,0.0431,0.0572,0.0347,0.0349,0.0351,0,-0.0638,-0.0655,-0.0695,-0.0672,-0.0667,-0.0661,-0.0594,-0.0564,-0.0452,-0.0398,-0.0307,-0.0224,-0.0108,-0.008,0.0126,0.0073,0.0177,0.0267,0.0276,0.0351,0.038,0.0543,0.0607,0.0755,0.0373,0.0371,0.037,0,-0.0704,-0.0722,-0.0755,-0.0751,-0.0718,-0.0709,-0.0681,-0.0588,-0.0548,-0.0436,-0.039,-0.0241,-0.0158,-0.0008,0.0171,0.0155,0.0397,0.0405,0.054,0.0543,0.0644,0.0653,0.0878,0.0546,0.0546,0.0545,0.0545,0,-0.0771,-0.0794,-0.0794,-0.0812,-0.0833,-0.0777,-0.0767,-0.071,-0.0614,-0.055,-0.0434,-0.0345,-0.0136,0.0028,0.0176,0.0409,0.0409,0.055,0.0597,0.0618,0.0623,0.0805,0.0855,0.0551,0.055,0.0548,0.0547,0,-0.0836,-0.084,-0.0877,-0.0871,-0.0871,-0.0885,-0.084,-0.0818,-0.0724,-0.0636,-0.0601,-0.0401,-0.0178,0.0028,0.0298,0.0424,0.074,0.0707,0.0706,0.075,0.1,0.1042,0.1296,0.1405,0.0887,0.0889,0.0891,0,-0.0873,-0.0903,-0.0936,-0.0965,-0.097,-0.0978,-0.0977,-0.089,-0.0849,-0.0656,-0.0612,-0.0382,-0.0178,0.0215,0.0479,0.0762,0.0856,0.094,0.0921,0.1041,0.1123,0.1132,0.1206,0.1025,0.1027,0.103,0.1031,0,-0.0934,-0.0947,-0.0982,-0.105,-0.1076,-0.1087,-0.1069,-0.104,-0.0902,-0.0777,-0.056,-0.0374,0.0004,0.0379,0.0717,0.087,0.1062,0.0993,0.1143,0.1275,0.128,0.1398,0.0876,0.1051,0.1049,0.1048,0.1047,0.1046,-0.0968,-0.1018,-0.1068,-0.1121,-0.1156,-0.1159,-0.1099,-0.1022,-0.0892,-0.0577,-0.0468,-0.0037,0.0294,0.0804,0.0976,0.1322,0.1264,0.1411,0.1459,0.1462,0.1556,0.1061,0.1266,0.1266,0.1265,0.1265,0.1264,0,-0.1003,-0.1058,-0.1127,-0.118,-0.1198,-0.1196,-0.1118,-0.0962,-0.0728,-0.0411,-0.0096,0.0472,0.0883,0.121,0.1603,0.1778,0.1818,0.1848,0.1889,0.195,0.1552,0.1546,0.1793,0.1793,0.1792,0.1792,0.1792,0.1792,-0.1024,-0.1101,-0.114,-0.1183,-0.1196,-0.1089,-0.099,-0.0727,-0.043,0.0135,0.0608,0.0909,0.1256,0.1784,0.2154,0.218,0.2349,0.2311,0.2412,0.2139,0.2101,0.2065,0.2074,0.2427,0.2428,0.2804,0.2807,0.281]}],[{"header":{"parameterUnit":"m.s-1","parameterCategory":2,"la1":30.2991,"la2":30.254,"lo1":-89.0895,"lo2":-89.0444,"dy":0.0017,"dx":0.0017,"nx":28,"ny":28,"refTime":"2024-05-23T09:00:00:Z","depth":"2","parameterNumber":2,"parameterNumberName":"U-component_of_CURRENTS"},"data":[0,0,0,0,0,0,0,0,0,0,0,0,0,0,0,0,0,0,0,0,0,0,0,0,0,0,0,0,0,0,0,0,0,0,0,0,0,0,0,0,0,0,0,0,0,0,0,0,0,0,0,0,0,0,0,0,0,0,-0.2476,-0.2476,0,-0.2503,-0.2504,-0.2504,-0.248,-0.2479,-0.2478,-0.2478,-0.2449,-0.2448,-0.2448,0,0,0,0,0,0,0,0,0,0,0,0,0,-0.2404,-0.2406,-0.2476,-0.2476,-0.2477,-0.2503,-0.2504,-0.2504,-0.248,-0.2479,-0.2478,-0.2477,-0.2449,-0.2448,-0.2448,0,0,0,0,0,0,0,0,0,0,0,0,0,-0.2432,-0.2406,-0.2476,-0.247,-0.247,-0.2503,-0.2504,-0.2504,-0.248,-0.2479,-0.2478,-0.2477,-0.2449,-0.2448,-0.2448,-0.2471,0,0,-0.2448,-0.2448,0,0,0,0,0,0,0,0,-0.243,-0.2434,-0.247,-0.247,-0.247,-0.2489,-0.2468,-0.2491,-0.2481,-0.2474,-0.2478,-0.2476,-0.2459,-0.2458,-0.2463,-0.2469,-0.2468,-0.2448,-0.2448,-0.2448,-0.2448,0,0,0,0,0,0,0,-0.2428,-0.2433,-0.2484,-0.2471,-0.2471,-0.2467,-0.2469,-0.2472,-0.247,-0.2474,-0.2473,-0.2481,-0.2458,-0.2464,-0.2462,-0.2468,-0.2448,-0.2448,-0.2448,-0.2448,-0.2491,-0.2492,0,0,0,0,0,0,-0.2431,-0.2431,-0.2483,-0.2485,-0.245,-0.2469,-0.2472,-0.2482,-0.2471,-0.2469,-0.2482,-0.2479,-0.2464,-0.2463,-0.2461,-0.2492,-0.2448,-0.2448,-0.2448,-0.249,-0.2491,-0.2493,0,0,0,0,0,0,-0.243,-0.2436,-0.2482,-0.246,-0.2466,-0.2472,-0.2484,-0.2484,-0.2487,-0.2477,-0.2474,-0.2485,-0.2463,-0.2461,-0.2467,-0.249,-0.2448,-0.2448,-0.2489,-0.249,-0.2492,-0.2551,0,0,0,0,0,0,-0.2428,-0.2435,-0.2441,-0.2461,-0.2468,-0.2506,-0.2485,-0.2485,-0.2494,-0.2492,-0.2479,-0.2476,-0.2462,-0.2468,-0.2467,-0.2489,-0.2448,-0.2487,-0.2489,-0.2491,-0.2547,-0.2554,-0.256,0,0,0,0,0,-0.2425,-0.2439,-0.2442,-0.2448,-0.2477,-0.2507,-0.251,-0.2508,-0.2496,-0.2505,-0.2495,-0.2476,-0.2482,-0.2469,-0.2468,-0.2491,-0.2486,-0.2489,-0.2491,-0.2544,-0.2553,-0.256,0,0,0,0,0,0,-0.2407,-0.2439,-0.2442,-0.2463,-0.2486,-0.2504,-0.251,-0.2513,-0.2515,-0.2506,-0.2491,-0.2488,-0.2505,-0.249,-0.2476,-0.251,-0.2481,-0.2484,-0.2522,-0.253,-0.2536,-0.2533,-0.2448,0,0,0,0,0,-0.241,-0.2426,-0.2458,-0.2472,-0.2485,-0.2498,-0.2509,-0.2513,-0.252,-0.2519,-0.2514,-0.2509,-0.2518,-0.2516,-0.252,-0.2536,-0.2504,-0.255,-0.2557,-0.2563,-0.2561,-0.2545,-0.255,-0.2502,-0.2502,-0.2502,0,0,-0.2406,-0.2424,-0.2433,-0.2469,-0.2481,-0.2514,-0.25,-0.2521,-0.2546,-0.2516,-0.2537,-0.2534,-0.2529,-0.255,-0.2556,-0.2538,-0.2557,-0.2566,-0.2571,-0.2566,-0.2549,-0.2553,-0.2557,-0.2504,-0.2503,-0.2503,0,0,-0.2411,-0.2424,-0.2444,-0.2471,-0.2502,-0.2519,-0.2528,-0.2554,-0.256,-0.2586,-0.2575,-0.2582,-0.2591,-0.2595,-0.2597,-0.2642,-0.2596,-0.2645,-0.2672,-0.2658,-0.2661,-0.2664,-0.2614,-0.2612,-0.2644,-0.2644,-0.2644,0,-0.2404,-0.2436,-0.2453,-0.2486,-0.2509,-0.2525,-0.2557,-0.2578,-0.2602,-0.2607,-0.2597,-0.2616,-0.2614,-0.2639,-0.2659,-0.2656,-0.2626,-0.2642,-0.2665,-0.2667,-0.2669,-0.2617,-0.2614,-0.2647,-0.2647,-0.2647,-0.2646,0,-0.243,-0.2461,-0.2474,-0.2522,-0.2551,-0.258,-0.2619,-0.2639,-0.2646,-0.266,-0.2681,-0.268,-0.2684,-0.2696,-0.2693,-0.2714,-0.268,-0.2678,-0.2642,-0.2677,-0.2621,-0.2616,-0.2652,-0.2651,-0.265,-0.2649,0,0,-0.2397,-0.2479,-0.248,-0.2509,-0.2573,-0.2594,-0.2644,-0.2684,-0.2701,-0.2721,-0.2736,-0.2764,-0.275,-0.2752,-0.2748,-0.2743,-0.2734,-0.272,-0.2717,-0.2665,-0.2673,-0.2571,-0.2556,-0.2735,-0.2735,-0.2735,-0.2623,0,-0.2408,-0.247,-0.2512,-0.2567,-0.2602,-0.2643,-0.2687,-0.2724,-0.2743,-0.2763,-0.2765,-0.278,-0.2776,-0.2776,-0.2774,-0.2748,-0.2727,-0.2762,-0.2652,-0.2648,-0.2549,-0.255,-0.2386,-0.2266,-0.2618,-0.2617,-0.2616,0,-0.2412,-0.2455,-0.2514,-0.2588,-0.2606,-0.2644,-0.2695,-0.2738,-0.2778,-0.2791,-0.2802,-0.2803,-0.2807,-0.2797,-0.2751,-0.2772,-0.2727,-0.2699,-0.2694,-0.2574,-0.2538,-0.2292,-0.2244,-0.2608,-0.2609,-0.261,-0.261,0,-0.2361,-0.2448,-0.249,-0.252,-0.2613,-0.2638,-0.268,-0.2734,-0.2756,-0.28,-0.2799,-0.2814,-0.2792,-0.2769,-0.2713,-0.2733,-0.264,-0.2656,-0.2514,-0.2504,-0.2329,-0.2305,-0.2613,-0.2614,-0.2614,-0.2614,-0.2615,0,-0.235,-0.2377,-0.2469,-0.2492,-0.2526,-0.2608,-0.264,-0.2684,-0.2739,-0.2749,-0.2796,-0.2783,-0.2785,-0.2735,-0.2703,-0.2574,-0.2622,-0.2504,-0.2471,-0.2343,-0.2322,-0.2599,-0.2599,-0.261,-0.2611,-0.2612,-0.2612,0,-0.2275,-0.2348,-0.2387,-0.248,-0.2503,-0.2519,-0.2597,-0.2619,-0.2685,-0.2695,-0.2705,-0.2734,-0.2666,-0.2637,-0.2574,-0.2521,-0.2444,-0.2385,-0.2217,-0.2166,-0.2319,-0.2324,-0.2217,-0.2213,-0.2209,-0.2206,-0.2203,0,-0.2241,-0.2257,-0.2338,-0.2354,-0.2391,-0.2437,-0.2466,-0.2564,-0.259,-0.2648,-0.2636,-0.26,-0.2526,-0.2388,-0.2307,-0.2193,-0.23,-0.1988,-0.2009,-0.2301,-0.228,-0.229,-0.23,-0.179,-0.1784,-0.178,-0.1776,0,-0.2149,-0.2177,-0.2207,-0.2243,-0.2274,-0.2305,-0.2359,-0.2371,-0.2476,-0.2482,-0.2458,-0.2406,-0.2282,-0.2087,-0.196,-0.1891,-0.2003,-0.1886,-0.222,-0.1926,-0.1892,-0.1874,-0.1898,-0.1733,-0.1737,-0.1741,-0.1743,-0.1745,-0.2052,-0.2044,-0.2084,-0.2097,-0.2136,-0.2144,-0.2101,-0.2175,-0.2173,-0.2141,-0.2219,-0.2071,-0.203,-0.1729,-0.1624,-0.1549,-0.1689,-0.1632,-0.165,-0.1671,-0.1653,-0.1615,-0.1398,-0.14,-0.1402,-0.1404,-0.1405,0,-0.1917,-0.1927,-0.1937,-0.1943,-0.191,-0.1984,-0.1996,-0.1923,-0.1852,-0.1879,-0.1818,-0.1599,-0.145,-0.1414,-0.1224,-0.1184,-0.1202,-0.1143,-0.118,-0.1222,-0.1259,-0.1223,-0.0852,-0.085,-0.0849,-0.0847,0,0,-0.185,-0.1806,-0.1808,-0.1701,-0.17,-0.1577,-0.1535,-0.1476,-0.1449,-0.1348,-0.1286,-0.1356,-0.1364,-0.1117,-0.1054,-0.092,-0.1063,-0.087,-0.1311,-0.1396,-0.1431,-0.1533,-0.1522,0,0,0,0,0]},{"header":{"parameterUnit":"m.s-1","parameterCategory":2,"la1":30.2991,"la2":30.254,"lo1":-89.0895,"lo2":-89.0444,"dy":0.0017,"dx":0.0017,"nx":28,"ny":28,"refTime":"2024-05-23T09:00:00:Z","depth":"2","parameterNumber":3,"parameterNumberName":"V-component_of_CURRENTS"},"data":[0,0,0,0,0,0,0,0,0,0,0,0,0,0,0,0,0,0,0,0,0,0,0,0,0,0,0,0,0,0,0,0,0,0,0,0,0,0,0,0,0,0,0,0,0,0,0,0,0,0,0,0,0,0,0,0,0,0,-0.027,-0.0269,0,-0.0185,-0.0183,-0.0182,-0.0121,-0.0121,-0.0121,-0.012,0.0008,0.0011,0.0014,0,0,0,0,0,0,0,0,0,0,0,0,0,-0.0326,-0.0325,-0.027,-0.0269,-0.0268,-0.0185,-0.0183,-0.0182,-0.0121,-0.0121,-0.0121,-0.012,0.0007,0.0011,0.0015,0,0,0,0,0,0,0,0,0,0,0,0,0,-0.0275,-0.0325,-0.027,-0.0229,-0.0225,-0.0185,-0.0183,-0.0182,-0.0121,-0.0121,-0.012,-0.012,0.0006,0.001,0.0015,0.0034,0,0,0.0029,0.0031,0,0,0,0,0,0,0,0,-0.0278,-0.0273,-0.0236,-0.0232,-0.0227,-0.0165,-0.0156,-0.0108,-0.0122,-0.0159,-0.012,-0.012,-0.0047,-0.0038,-0.0021,0.004,0.0046,0.003,0.0033,0.0035,0.0036,0,0,0,0,0,0,0,-0.0282,-0.0276,-0.0234,-0.0236,-0.023,-0.0196,-0.0189,-0.0146,-0.0105,-0.0156,-0.0151,-0.0145,-0.0044,-0.0026,-0.0018,0.0048,0.003,0.0034,0.0037,0.0039,0.0141,0.0141,0,0,0,0,0,0,-0.03,-0.028,-0.0237,-0.0232,-0.0254,-0.0196,-0.0188,-0.0184,-0.0106,-0.0094,-0.0145,-0.0142,-0.0034,-0.0023,-0.0013,0.0017,0.0035,0.0039,0.0042,0.0141,0.0141,0.0141,0,0,0,0,0,0,-0.0301,-0.0297,-0.0241,-0.0255,-0.0246,-0.0196,-0.0192,-0.0182,-0.0165,-0.0099,-0.0086,-0.0138,-0.0033,-0.0019,0.0024,0.0022,0.0041,0.0045,0.0141,0.0141,0.0141,0.0074,0,0,0,0,0,0,-0.0303,-0.0298,-0.0303,-0.0257,-0.0246,-0.0225,-0.0192,-0.0181,-0.0162,-0.0157,-0.0088,-0.0076,-0.0032,0.0016,0.0028,0.0029,0.0049,0.0141,0.0141,0.0141,0.0077,0.0072,0.0068,0,0,0,0,0,-0.0306,-0.0317,-0.0304,-0.0299,-0.0254,-0.0226,-0.0217,-0.0178,-0.0163,-0.016,-0.0111,-0.0078,0.0024,0.002,0.0034,0.0036,0.0141,0.0141,0.0141,0.0079,0.0073,0.0068,0,0,0,0,0,0,-0.0344,-0.0311,-0.0295,-0.0296,-0.0267,-0.0216,-0.0212,-0.0185,-0.0145,-0.014,-0.0076,-0.0061,-0.0025,0.0014,0.0008,0.0065,0.0087,0.009,0.0035,0.003,0.0026,0.0014,0.0053,0,0,0,0,0,-0.0356,-0.0357,-0.0317,-0.0318,-0.0307,-0.0261,-0.0246,-0.022,-0.0178,-0.016,-0.0112,-0.006,-0.0015,0.0013,0.0055,0.0089,0.0135,0.0099,0.0094,0.009,0.0091,0.0159,0.0161,0.014,0.014,0.014,0,0,-0.0372,-0.0355,-0.0355,-0.0327,-0.0301,-0.0292,-0.0251,-0.0234,-0.0221,-0.0152,-0.0123,-0.0076,-0.0011,0.0025,0.0044,0.0058,0.0119,0.009,0.0086,0.0089,0.0159,0.0162,0.0164,0.014,0.014,0.014,0,0,-0.0409,-0.0389,-0.0403,-0.0382,-0.0353,-0.0321,-0.032,-0.0274,-0.0248,-0.0215,-0.0163,-0.0115,-0.0051,-0.0,0.0033,0.0032,0.0089,0.0041,0.0017,0.0083,0.0086,0.0088,0.014,0.0148,0.0044,0.0044,0.0043,0,-0.0432,-0.044,-0.0402,-0.0407,-0.0395,-0.0339,-0.0346,-0.0311,-0.0256,-0.0233,-0.0218,-0.0111,-0.0061,-0.0001,-0.0003,0.0023,0.0064,0.003,0.0077,0.0081,0.0085,0.0138,0.0147,0.004,0.0041,0.0041,0.0041,0,-0.0473,-0.048,-0.0486,-0.0472,-0.0452,-0.045,-0.0398,-0.0375,-0.0338,-0.0295,-0.0236,-0.0162,-0.0096,-0.0074,-0.0038,0.0015,0.0035,0.0059,0.0088,0.0083,0.0139,0.015,0.0036,0.0037,0.0038,0.0039,0,0,-0.0527,-0.0519,-0.0523,-0.0528,-0.0487,-0.0476,-0.0452,-0.041,-0.0389,-0.0327,-0.0289,-0.0209,-0.0162,-0.0121,-0.0063,-0.0004,0.0055,0.0032,0.0037,0.0078,0.0193,0.0221,0.0236,0.0087,0.0089,0.009,0.0217,0,-0.0574,-0.061,-0.0582,-0.0601,-0.0611,-0.0549,-0.053,-0.0479,-0.0424,-0.0371,-0.028,-0.0226,-0.018,-0.0149,-0.0081,0.0025,0.0083,0.0018,0.0197,0.0202,0.0223,0.0249,0.0215,0.0326,0.0228,0.023,0.0232,0,-0.0624,-0.0642,-0.0679,-0.0667,-0.0663,-0.0659,-0.061,-0.0584,-0.049,-0.0443,-0.0363,-0.0288,-0.0187,-0.0154,0.0027,-0.0017,0.0077,0.0157,0.0165,0.0223,0.0251,0.0319,0.0351,0.0251,0.0249,0.0248,0.0247,0,-0.0688,-0.0705,-0.074,-0.0737,-0.0712,-0.071,-0.0688,-0.0612,-0.0581,-0.0488,-0.0449,-0.0319,-0.0246,-0.0111,0.0054,0.0043,0.0253,0.0263,0.0376,0.0379,0.0403,0.0404,0.0384,0.0384,0.0384,0.0384,0.0383,0,-0.0749,-0.0774,-0.0777,-0.0796,-0.0825,-0.0777,-0.0777,-0.0731,-0.0652,-0.0603,-0.0495,-0.042,-0.0232,-0.0087,0.0051,0.0255,0.0257,0.0382,0.0421,0.0377,0.0375,0.0351,0.0346,0.0388,0.0387,0.0386,0.0386,0,-0.0812,-0.0816,-0.0855,-0.0857,-0.086,-0.0879,-0.0848,-0.0837,-0.0756,-0.0686,-0.0658,-0.0481,-0.0286,-0.0098,0.0139,0.0255,0.0439,0.0504,0.0433,0.0461,0.0518,0.0507,0.0647,0.0649,0.0651,0.0653,0.0654,0,-0.0848,-0.0877,-0.0913,-0.0944,-0.0951,-0.0969,-0.0974,-0.0904,-0.0874,-0.071,-0.0675,-0.0478,-0.0303,0.0043,0.0271,0.0522,0.0506,0.0613,0.0591,0.0525,0.0549,0.0535,0.0523,0.0593,0.0594,0.0595,0.0595,0,-0.0909,-0.0922,-0.0958,-0.1028,-0.1058,-0.1078,-0.1072,-0.1054,-0.0941,-0.0845,-0.0666,-0.0509,-0.0171,0.0118,0.0417,0.0546,0.0569,0.0634,0.061,0.0525,0.0483,0.0503,0.0491,0.06,0.06,0.0599,0.0599,0.0599,-0.0948,-0.0996,-0.1046,-0.1105,-0.1144,-0.1163,-0.1164,-0.1113,-0.103,-0.0853,-0.0681,-0.0425,-0.014,0.0295,0.0512,0.0674,0.0674,0.0701,0.0696,0.0691,0.0655,0.0618,0.0753,0.0754,0.0754,0.0754,0.0754,0,-0.0994,-0.1047,-0.1115,-0.1179,-0.1223,-0.1223,-0.1205,-0.1165,-0.1053,-0.0865,-0.0657,-0.0309,0.0022,0.0284,0.0573,0.0764,0.0731,0.076,0.0687,0.0681,0.0676,0.0636,0.0731,0.0732,0.0732,0.0733,0,0,-0.1022,-0.11,-0.1137,-0.1223,-0.1262,-0.1286,-0.1267,-0.117,-0.1037,-0.0817,-0.0618,-0.0346,0.0016,0.0218,0.0458,0.0599,0.0575,0.0592,0.059,0.0468,0.0461,0.0624,0.0554,0,0,0,0,0]}],[{"header":{"parameterUnit":"m.s-1","parameterCategory":2,"la1":30.2991,"la2":30.254,"lo1":-89.0895,"lo2":-89.0444,"dy":0.0017,"dx":0.0017,"nx":28,"ny":28,"refTime":"2024-05-23T09:00:00:Z","depth":"4","parameterNumber":2,"parameterNumberName":"U-component_of_CURRENTS"},"data":[0,0,0,0,0,0,0,0,0,0,0,0,0,0,0,0,0,0,0,0,0,0,0,0,0,0,0,0,0,0,0,0,0,0,0,0,0,0,0,0,0,0,0,0,0,0,0,0,0,0,0,0,0,0,0,0,0,0,-0.1773,-0.1773,0,-0.1845,-0.1846,-0.1847,-0.1883,-0.1883,-0.1883,-0.1883,-0.1935,-0.1937,-0.1938,0,0,0,0,0,0,0,0,0,0,0,0,0,-0.1667,-0.1669,-0.1772,-0.1774,-0.1775,-0.1845,-0.1846,-0.1847,-0.1882,-0.1883,-0.1883,-0.1883,-0.1935,-0.1937,-0.1938,0,0,0,0,0,0,0,0,0,0,0,0,0,-0.1722,-0.1669,-0.1772,-0.1802,-0.1806,-0.1845,-0.1846,-0.1847,-0.1882,-0.1883,-0.1883,-0.1883,-0.1935,-0.1936,-0.1938,-0.1944,0,0,-0.1944,-0.1945,0,0,0,0,0,0,0,0,-0.1719,-0.1726,-0.1797,-0.18,-0.1804,-0.1857,-0.1828,-0.1879,-0.1882,-0.1851,-0.1883,-0.1883,-0.1908,-0.1912,-0.1923,-0.1947,-0.1949,-0.1944,-0.1945,-0.1946,-0.1946,0,0,0,0,0,0,0,-0.1715,-0.1723,-0.1799,-0.1798,-0.1803,-0.1813,-0.1821,-0.1838,-0.1876,-0.1854,-0.1857,-0.1868,-0.191,-0.1921,-0.1924,-0.195,-0.1944,-0.1946,-0.1947,-0.1947,-0.2045,-0.2046,0,0,0,0,0,0,-0.171,-0.1719,-0.1797,-0.1802,-0.1764,-0.1815,-0.1824,-0.1838,-0.1876,-0.1883,-0.1868,-0.187,-0.1918,-0.1922,-0.1926,-0.2002,-0.1946,-0.1948,-0.1949,-0.2043,-0.2045,-0.2047,0,0,0,0,0,0,-0.1707,-0.1716,-0.1794,-0.1763,-0.1774,-0.1817,-0.1833,-0.1839,-0.1879,-0.1887,-0.1893,-0.1904,-0.1918,-0.1924,-0.1969,-0.2002,-0.1948,-0.195,-0.2041,-0.2044,-0.2046,-0.2111,0,0,0,0,0,0,-0.1704,-0.1715,-0.1738,-0.1763,-0.1776,-0.1837,-0.1833,-0.1841,-0.1885,-0.1889,-0.192,-0.1923,-0.1919,-0.1966,-0.197,-0.2003,-0.1952,-0.204,-0.2042,-0.2045,-0.2107,-0.2115,-0.2122,0,0,0,0,0,-0.17,-0.1726,-0.1739,-0.1749,-0.1802,-0.1839,-0.1847,-0.1875,-0.1887,-0.1911,-0.1934,-0.1924,-0.1986,-0.1969,-0.1974,-0.2008,-0.2038,-0.2042,-0.2045,-0.2104,-0.2114,-0.2122,0,0,0,0,0,0,-0.1693,-0.1733,-0.1748,-0.1786,-0.182,-0.1846,-0.1876,-0.1894,-0.1932,-0.1943,-0.1946,-0.1952,-0.2003,-0.1997,-0.1978,-0.2044,-0.201,-0.2014,-0.2053,-0.2062,-0.2069,-0.206,-0.1953,0,0,0,0,0,-0.1702,-0.1734,-0.1769,-0.1803,-0.1822,-0.1855,-0.188,-0.1901,-0.1931,-0.195,-0.1972,-0.1993,-0.2016,-0.2033,-0.2051,-0.2089,-0.206,-0.2113,-0.2121,-0.2127,-0.2123,-0.2115,-0.2121,-0.2057,-0.2057,-0.2057,0,0,-0.171,-0.1736,-0.1756,-0.1804,-0.1832,-0.187,-0.1871,-0.1918,-0.1956,-0.1948,-0.2012,-0.2026,-0.2033,-0.2076,-0.2098,-0.2079,-0.2129,-0.2132,-0.2137,-0.2129,-0.2119,-0.2125,-0.213,-0.206,-0.2059,-0.2059,0,0,-0.173,-0.1765,-0.1796,-0.1829,-0.1881,-0.1902,-0.1922,-0.1969,-0.1998,-0.2054,-0.2058,-0.2091,-0.2133,-0.214,-0.2147,-0.2207,-0.2171,-0.222,-0.2252,-0.2245,-0.225,-0.2254,-0.2215,-0.2215,-0.2223,-0.2223,-0.2223,0,-0.174,-0.1781,-0.1811,-0.1849,-0.1882,-0.1919,-0.1959,-0.1996,-0.2054,-0.2075,-0.2085,-0.2144,-0.2158,-0.2192,-0.2219,-0.2224,-0.2203,-0.2218,-0.2254,-0.2257,-0.226,-0.2219,-0.2218,-0.2226,-0.2226,-0.2225,-0.2225,0,-0.1772,-0.182,-0.1842,-0.1901,-0.194,-0.1984,-0.2032,-0.2078,-0.2117,-0.2143,-0.2199,-0.2218,-0.2245,-0.2263,-0.2264,-0.2298,-0.227,-0.2265,-0.2227,-0.227,-0.2225,-0.2222,-0.2231,-0.223,-0.2229,-0.2228,0,0,-0.1749,-0.1846,-0.1856,-0.1893,-0.1973,-0.2002,-0.2071,-0.2127,-0.2162,-0.2219,-0.2255,-0.2307,-0.2313,-0.2321,-0.2327,-0.233,-0.2338,-0.2315,-0.2313,-0.227,-0.2302,-0.2147,-0.2129,-0.2344,-0.2344,-0.2345,-0.2259,0,-0.1765,-0.1838,-0.1887,-0.1961,-0.2001,-0.206,-0.2115,-0.2173,-0.2219,-0.2264,-0.2288,-0.2329,-0.2336,-0.2355,-0.2362,-0.2346,-0.2337,-0.236,-0.2272,-0.2269,-0.2121,-0.2123,-0.2346,-0.2257,-0.2256,-0.2255,-0.2255,0,-0.1768,-0.182,-0.1897,-0.1987,-0.201,-0.2064,-0.2143,-0.2198,-0.2264,-0.2298,-0.2337,-0.2356,-0.2381,-0.238,-0.236,-0.2376,-0.2347,-0.2326,-0.2322,-0.215,-0.211,-0.2208,-0.225,-0.2251,-0.2251,-0.2251,-0.2252,0,-0.1713,-0.1819,-0.188,-0.1915,-0.2026,-0.2072,-0.213,-0.2208,-0.2244,-0.2318,-0.2336,-0.2373,-0.2378,-0.2369,-0.2335,-0.2354,-0.2287,-0.23,-0.2125,-0.2113,-0.225,-0.2247,-0.2275,-0.2275,-0.2275,-0.2275,-0.2276,0,-0.1689,-0.1738,-0.1866,-0.1898,-0.1959,-0.2053,-0.2115,-0.2174,-0.225,-0.2271,-0.2347,-0.234,-0.2379,-0.2348,-0.2327,-0.2196,-0.2273,-0.2113,-0.2078,-0.2279,-0.228,-0.2247,-0.2245,-0.2272,-0.2273,-0.2274,-0.2274,0,-0.1608,-0.17,-0.1768,-0.1896,-0.1936,-0.1977,-0.209,-0.2122,-0.2213,-0.2238,-0.226,-0.2307,-0.2256,-0.2255,-0.2214,-0.2146,-0.2068,-0.2006,-0.2193,-0.2173,-0.1902,-0.1905,-0.1795,-0.1789,-0.1783,-0.1779,-0.1775,0,-0.1568,-0.1601,-0.1737,-0.1775,-0.1837,-0.192,-0.1964,-0.2081,-0.2108,-0.2186,-0.2171,-0.2166,-0.2173,-0.1962,-0.2005,-0.1918,-0.1905,-0.1853,-0.1905,-0.1874,-0.1853,-0.1864,-0.1874,-0.1767,-0.1765,-0.1764,-0.1763,0,-0.1477,-0.1542,-0.1595,-0.1672,-0.1735,-0.1786,-0.1864,-0.1865,-0.1978,-0.208,-0.2005,-0.1961,-0.1885,-0.1837,-0.1769,-0.1726,-0.1886,-0.1798,-0.181,-0.1858,-0.1839,-0.1825,-0.1841,-0.1744,-0.1747,-0.1749,-0.175,0,-0.14,-0.141,-0.149,-0.1534,-0.1611,-0.162,-0.1683,-0.1701,-0.1733,-0.1838,-0.1802,-0.1801,-0.1851,-0.1733,-0.1683,-0.1611,-0.1599,-0.1562,-0.1586,-0.1606,-0.1587,-0.1539,-0.1302,0,0,0,0,0,-0.1311,-0.1307,-0.1345,-0.1381,-0.1451,-0.1484,-0.1596,-0.1666,-0.1777,-0.1669,-0.1731,-0.1657,-0.1563,-0.1571,-0.1453,-0.1607,-0.1614,-0.1468,-0.1588,-0.1643,-0.1664,-0.1661,0,0,0,0,0,0,-0.1254,-0.1285,-0.129,-0.1235,-0.1229,-0.1276,-0.1335,-0.142,-0.1378,-0.1498,-0.1444,-0.154,-0.1465,-0.1572,-0.1403,-0.1408,-0.1448,-0.1488,-0.1484,-0.1631,-0.165,-0.1667,-0.1671,0,0,0,0,0]},{"header":{"parameterUnit":"m.s-1","parameterCategory":2,"la1":30.2991,"la2":30.254,"lo1":-89.0895,"lo2":-89.0444,"dy":0.0017,"dx":0.0017,"nx":28,"ny":28,"refTime":"2024-05-23T09:00:00:Z","depth":"4","parameterNumber":3,"parameterNumberName":"V-component_of_CURRENTS"},"data":[0,0,0,0,0,0,0,0,0,0,0,0,0,0,0,0,0,0,0,0,0,0,0,0,0,0,0,0,0,0,0,0,0,0,0,0,0,0,0,0,0,0,0,0,0,0,0,0,0,0,0,0,0,0,0,0,0,0,-0.0199,-0.0198,0,-0.0136,-0.0136,-0.0135,-0.0097,-0.0097,-0.0097,-0.0097,0.0007,0.001,0.0013,0,0,0,0,0,0,0,0,0,0,0,0,0,-0.024,-0.0239,-0.0199,-0.0198,-0.0198,-0.0137,-0.0135,-0.0134,-0.0097,-0.0097,-0.0097,-0.0097,0.0006,0.0009,0.0013,0,0,0,0,0,0,0,0,0,0,0,0,0,-0.0203,-0.0239,-0.0199,-0.0173,-0.017,-0.0137,-0.0135,-0.0134,-0.0097,-0.0097,-0.0097,-0.0097,0.0005,0.0009,0.0013,0.0038,0,0,0.0026,0.0028,0,0,0,0,0,0,0,0,-0.0205,-0.0201,-0.0177,-0.0175,-0.0172,-0.0126,-0.0112,-0.0075,-0.0097,-0.0123,-0.0097,-0.0097,-0.0035,-0.0027,-0.0014,0.0043,0.0048,0.0026,0.0029,0.0031,0.0032,0,0,0,0,0,0,0,-0.0208,-0.0203,-0.0172,-0.0177,-0.0173,-0.0149,-0.0144,-0.0104,-0.0078,-0.0121,-0.0119,-0.0114,-0.0032,-0.0018,-0.0011,0.0049,0.0026,0.003,0.0032,0.0034,0.013,0.013,0,0,0,0,0,0,-0.0221,-0.0206,-0.0174,-0.0171,-0.019,-0.0148,-0.0142,-0.0139,-0.0079,-0.0071,-0.0114,-0.0113,-0.0025,-0.0016,-0.0007,0.0018,0.0031,0.0034,0.0037,0.013,0.013,0.013,0,0,0,0,0,0,-0.0222,-0.0219,-0.0177,-0.0188,-0.0181,-0.0148,-0.0144,-0.0138,-0.0127,-0.0075,-0.0065,-0.011,-0.0025,-0.0013,0.0025,0.0022,0.0036,0.004,0.013,0.013,0.013,0.0073,0,0,0,0,0,0,-0.0224,-0.022,-0.0225,-0.0189,-0.0181,-0.0163,-0.0144,-0.0137,-0.0125,-0.0122,-0.0068,-0.0058,-0.0024,0.0019,0.0029,0.0028,0.0043,0.0129,0.013,0.013,0.0075,0.0071,0.0068,0,0,0,0,0,-0.0225,-0.0231,-0.0225,-0.0222,-0.0188,-0.0164,-0.0157,-0.0132,-0.0125,-0.0121,-0.0084,-0.006,0.0027,0.0022,0.0035,0.0035,0.0129,0.013,0.013,0.0076,0.0072,0.0068,0,0,0,0,0,0,-0.025,-0.0227,-0.022,-0.0219,-0.0197,-0.0158,-0.0155,-0.0137,-0.0105,-0.0104,-0.0055,-0.0042,-0.0012,0.0021,0.0015,0.0063,0.0081,0.0083,0.0036,0.0032,0.0029,0.0015,0.0047,0,0,0,0,0,-0.0259,-0.0261,-0.0231,-0.0232,-0.0224,-0.0191,-0.018,-0.0162,-0.013,-0.0116,-0.0079,-0.0038,-0.0001,0.0022,0.0058,0.0088,0.0123,0.0096,0.0092,0.0089,0.0087,0.014,0.0141,0.013,0.013,0.013,0,0,-0.027,-0.0258,-0.0259,-0.0238,-0.022,-0.0213,-0.0184,-0.0171,-0.0164,-0.0109,-0.0088,-0.0049,0.0003,0.0033,0.005,0.0061,0.011,0.0089,0.0086,0.0086,0.0141,0.0142,0.0143,0.013,0.013,0.013,0,0,-0.0293,-0.0282,-0.0291,-0.0277,-0.0256,-0.0233,-0.0233,-0.0198,-0.0182,-0.0155,-0.0116,-0.0079,-0.0024,0.0015,0.0041,0.0043,0.0087,0.0052,0.0029,0.008,0.0082,0.0083,0.0121,0.0127,0.0054,0.0054,0.0054,0,-0.0309,-0.0317,-0.0289,-0.0293,-0.0288,-0.0247,-0.0254,-0.0228,-0.0185,-0.0171,-0.0158,-0.0076,-0.0032,0.0012,0.0011,0.0035,0.0067,0.0038,0.0075,0.0078,0.008,0.0119,0.0126,0.0051,0.0051,0.0051,0.0052,0,-0.0334,-0.0344,-0.0347,-0.0341,-0.0328,-0.0327,-0.0291,-0.0276,-0.0251,-0.0221,-0.018,-0.0117,-0.0068,-0.0048,-0.0016,0.0022,0.0039,0.0061,0.0082,0.0078,0.0119,0.0127,0.0047,0.0048,0.0049,0.0049,0,0,-0.0366,-0.0368,-0.0373,-0.0384,-0.0356,-0.0351,-0.0336,-0.031,-0.0303,-0.0253,-0.0233,-0.0165,-0.0129,-0.0097,-0.0048,-0.0,0.0045,0.0033,0.0037,0.0064,0.0151,0.0139,0.0147,0.0073,0.0075,0.0076,0.0169,0,-0.04,-0.0432,-0.0414,-0.0438,-0.045,-0.0411,-0.0402,-0.037,-0.0332,-0.03,-0.0228,-0.0191,-0.0147,-0.0125,-0.0069,0.0019,0.0065,0.0017,0.0157,0.0161,0.0146,0.0156,0.008,0.0175,0.0177,0.0178,0.0179,0,-0.0432,-0.0452,-0.0489,-0.0497,-0.0497,-0.0501,-0.0482,-0.0467,-0.0404,-0.0371,-0.0314,-0.0256,-0.0177,-0.0142,0.0004,-0.0029,0.0051,0.0119,0.0125,0.014,0.0164,0.0185,0.0195,0.0193,0.0192,0.0191,0.019,0,-0.0476,-0.0502,-0.054,-0.0542,-0.0539,-0.0549,-0.0543,-0.0496,-0.0481,-0.0419,-0.0392,-0.0294,-0.0237,-0.0125,0.0016,0.0012,0.0177,0.0192,0.0256,0.0256,0.0263,0.0261,0.0289,0.0289,0.0289,0.0288,0.0288,0,-0.0515,-0.0546,-0.0571,-0.0591,-0.0632,-0.0606,-0.0625,-0.0599,-0.055,-0.0522,-0.0438,-0.0383,-0.0229,-0.0113,0.0006,0.0156,0.0173,0.0253,0.0282,0.0236,0.023,0.0269,0.0265,0.0292,0.0291,0.0291,0.029,0,-0.0552,-0.0569,-0.0617,-0.0643,-0.0657,-0.0686,-0.069,-0.0691,-0.0639,-0.0595,-0.0577,-0.044,-0.0287,-0.0135,0.006,0.0142,0.0284,0.0332,0.0264,0.0287,0.0328,0.0321,0.0406,0.0407,0.0407,0.0407,0.0408,0,-0.0572,-0.0602,-0.0666,-0.0705,-0.0724,-0.0761,-0.078,-0.0745,-0.0728,-0.0618,-0.059,-0.0446,-0.034,-0.0072,0.0078,0.0288,0.0317,0.0374,0.0355,0.0322,0.0342,0.0334,0.0326,0.0408,0.0408,0.0408,0.0409,0,-0.0608,-0.0636,-0.0678,-0.0761,-0.0807,-0.0844,-0.0859,-0.0845,-0.0775,-0.0733,-0.0576,-0.0428,-0.0255,-0.006,0.0098,0.0251,0.0327,0.0379,0.0379,0.0362,0.0325,0.0343,0.0335,0.041,0.041,0.041,0.0409,0,-0.0633,-0.0676,-0.0738,-0.0803,-0.0869,-0.0896,-0.0901,-0.0849,-0.0813,-0.067,-0.0617,-0.0416,-0.0294,-0.0078,0.0075,0.0213,0.0245,0.0276,0.0282,0.0283,0.0213,0.0147,0.0204,0,0,0,0,0,-0.0651,-0.0702,-0.0773,-0.0842,-0.0904,-0.0932,-0.0934,-0.0916,-0.0842,-0.0733,-0.0664,-0.0491,-0.0235,-0.0121,0.0017,0.0052,0.0238,0.0214,0.027,0.0417,0.0415,0.0353,0,0,0,0,0,0,-0.0668,-0.074,-0.0775,-0.0854,-0.0901,-0.0955,-0.0954,-0.0906,-0.0826,-0.073,-0.0589,-0.0481,-0.0238,-0.0315,0.0013,0.0055,0.0104,0.0342,0.0344,0.0417,0.0416,0.0415,0.0351,0,0,0,0,0]}]]